Year,Month,Day,Hour,Minute,Value (Times are PST for temperature in C)
2012,10,02,00,00,8.20
2012,10,02,00,01,8.20
2012,10,02,00,02,8.20
2012,10,02,00,03,8.20
2012,10,02,00,04,8.20
2012,10,02,00,05,8.20
2012,10,02,00,06,8.20
2012,10,02,00,07,8.20
2012,10,02,00,08,8.20
2012,10,02,00,09,8.20
2012,10,02,00,10,8.20
2012,10,02,00,11,8.20
2012,10,02,00,12,8.10
2012,10,02,00,13,8.10
2012,10,02,00,14,8.10
2012,10,02,00,15,8.10
2012,10,02,00,16,8.10
2012,10,02,00,17,8.10
2012,10,02,00,18,8.10
2012,10,02,00,19,8.10
2012,10,02,00,20,8.10
2012,10,02,00,21,8.10
2012,10,02,00,22,8.00
2012,10,02,00,23,8.00
2012,10,02,00,24,8.00
2012,10,02,00,25,8.00
2012,10,02,00,26,8.00
2012,10,02,00,27,8.00
2012,10,02,00,28,8.00
2012,10,02,00,29,8.00
2012,10,02,00,30,8.00
2012,10,02,00,31,8.00
2012,10,02,00,32,8.10
2012,10,02,00,33,8.10
2012,10,02,00,34,8.10
2012,10,02,00,35,8.20
2012,10,02,00,36,8.20
2012,10,02,00,37,8.20
2012,10,02,00,38,8.30
2012,10,02,00,39,8.30
2012,10,02,00,40,8.30
2012,10,02,00,41,8.30
2012,10,02,00,42,8.30
2012,10,02,00,43,8.30
2012,10,02,00,44,8.30
2012,10,02,00,45,8.30
2012,10,02,00,46,8.40
2012,10,02,00,47,8.40
2012,10,02,00,48,8.50
2012,10,02,00,49,8.60
2012,10,02,00,50,8.60
2012,10,02,00,51,8.60
2012,10,02,00,52,8.70
2012,10,02,00,53,8.80
2012,10,02,00,54,8.80
2012,10,02,00,55,8.80
2012,10,02,00,56,8.80
2012,10,02,00,57,8.80
2012,10,02,00,58,8.90
2012,10,02,00,59,8.90
2012,10,02,01,00,8.90
2012,10,02,01,01,8.90
2012,10,02,01,02,8.90
2012,10,02,01,03,9.00
2012,10,02,01,04,9.00
2012,10,02,01,05,9.00
2012,10,02,01,06,9.00
2012,10,02,01,07,9.00
2012,10,02,01,08,9.00
2012,10,02,01,09,9.00
2012,10,02,01,10,9.00
2012,10,02,01,11,9.10
2012,10,02,01,12,9.10
2012,10,02,01,13,9.10
2012,10,02,01,14,9.10
2012,10,02,01,15,9.10
2012,10,02,01,16,9.10
2012,10,02,01,17,9.10
2012,10,02,01,18,9.10
2012,10,02,01,19,9.10
2012,10,02,01,20,9.10
2012,10,02,01,21,9.10
2012,10,02,01,22,9.10
2012,10,02,01,23,9.10
2012,10,02,01,24,9.10
2012,10,02,01,25,9.10
2012,10,02,01,26,9.10
2012,10,02,01,27,9.10
2012,10,02,01,28,9.10
2012,10,02,01,29,9.10
2012,10,02,01,30,9.00
2012,10,02,01,31,9.00
2012,10,02,01,32,9.00
2012,10,02,01,33,9.00
2012,10,02,01,34,9.00
2012,10,02,01,35,8.90
2012,10,02,01,36,8.90
2012,10,02,01,37,8.90
2012,10,02,01,38,8.90
2012,10,02,01,39,8.90
2012,10,02,01,40,8.90
2012,10,02,01,41,8.90
2012,10,02,01,42,8.80
2012,10,02,01,43,8.80
2012,10,02,01,44,8.80
2012,10,02,01,45,8.80
2012,10,02,01,46,8.80
2012,10,02,01,47,8.80
2012,10,02,01,48,8.80
2012,10,02,01,49,8.80
2012,10,02,01,50,8.80
2012,10,02,01,51,8.80
2012,10,02,01,52,8.80
2012,10,02,01,53,8.80
2012,10,02,01,54,8.80
2012,10,02,01,55,8.90
2012,10,02,01,56,8.90
2012,10,02,01,57,8.90
2012,10,02,01,58,8.90
2012,10,02,01,59,8.90
2012,10,02,02,00,8.90
2012,10,02,02,01,8.90
2012,10,02,02,02,8.90
2012,10,02,02,03,8.90
2012,10,02,02,04,8.90
2012,10,02,02,05,8.90
2012,10,02,02,06,8.90
2012,10,02,02,07,8.90
2012,10,02,02,08,8.90
2012,10,02,02,09,8.90
2012,10,02,02,10,8.90
2012,10,02,02,11,8.90
2012,10,02,02,12,8.90
2012,10,02,02,13,8.90
2012,10,02,02,14,8.90
2012,10,02,02,15,8.90
2012,10,02,02,16,8.90
2012,10,02,02,17,8.90
2012,10,02,02,18,8.90
2012,10,02,02,19,8.90
2012,10,02,02,20,8.90
2012,10,02,02,21,8.90
2012,10,02,02,22,8.90
2012,10,02,02,23,8.90
2012,10,02,02,24,8.90
2012,10,02,02,25,8.90
2012,10,02,02,26,8.90
2012,10,02,02,27,8.90
2012,10,02,02,28,8.90
2012,10,02,02,29,8.90
2012,10,02,02,30,8.90
2012,10,02,02,31,8.90
2012,10,02,02,32,8.90
2012,10,02,02,33,8.90
2012,10,02,02,34,8.90
2012,10,02,02,35,8.90
2012,10,02,02,36,8.90
2012,10,02,02,37,8.90
2012,10,02,02,38,8.90
2012,10,02,02,39,8.90
2012,10,02,02,40,8.90
2012,10,02,02,41,8.90
2012,10,02,02,42,8.90
2012,10,02,02,43,8.90
2012,10,02,02,44,8.90
2012,10,02,02,45,8.90
2012,10,02,02,46,8.90
2012,10,02,02,47,8.90
2012,10,02,02,48,8.90
2012,10,02,02,49,8.90
2012,10,02,02,50,8.90
2012,10,02,02,51,8.90
2012,10,02,02,52,8.90
2012,10,02,02,53,8.90
2012,10,02,02,54,8.90
2012,10,02,02,55,8.90
2012,10,02,02,56,9.00
2012,10,02,02,57,9.00
2012,10,02,02,58,9.00
2012,10,02,02,59,9.00
2012,10,02,03,00,9.00
2012,10,02,03,01,9.00
2012,10,02,03,02,9.00
2012,10,02,03,03,9.00
2012,10,02,03,04,9.00
2012,10,02,03,05,9.00
2012,10,02,03,06,9.00
2012,10,02,03,07,9.00
2012,10,02,03,08,9.00
2012,10,02,03,09,9.00
2012,10,02,03,10,9.00
2012,10,02,03,11,9.00
2012,10,02,03,12,9.00
2012,10,02,03,13,9.00
2012,10,02,03,14,9.00
2012,10,02,03,15,9.00
2012,10,02,03,16,9.00
2012,10,02,03,17,9.00
2012,10,02,03,18,9.00
2012,10,02,03,19,9.00
2012,10,02,03,20,9.00
2012,10,02,03,21,9.00
2012,10,02,03,22,9.10
2012,10,02,03,23,9.10
2012,10,02,03,24,9.10
2012,10,02,03,25,9.10
2012,10,02,03,26,9.10
2012,10,02,03,27,9.10
2012,10,02,03,28,9.10
2012,10,02,03,29,9.10
2012,10,02,03,30,9.10
2012,10,02,03,31,9.10
2012,10,02,03,32,9.10
2012,10,02,03,33,9.10
2012,10,02,03,34,9.10
2012,10,02,03,35,9.10
2012,10,02,03,36,9.10
2012,10,02,03,37,9.10
2012,10,02,03,38,9.10
2012,10,02,03,39,9.10
2012,10,02,03,40,9.10
2012,10,02,03,41,9.10
2012,10,02,03,42,9.10
2012,10,02,03,43,9.10
2012,10,02,03,44,9.10
2012,10,02,03,45,9.10
2012,10,02,03,46,9.10
2012,10,02,03,47,9.10
2012,10,02,03,48,9.10
2012,10,02,03,49,9.20
2012,10,02,03,50,9.20
2012,10,02,03,51,9.20
2012,10,02,03,52,9.20
2012,10,02,03,53,9.20
2012,10,02,03,54,9.20
2012,10,02,03,55,9.20
2012,10,02,03,56,9.20
2012,10,02,03,57,9.20
2012,10,02,03,58,9.20
2012,10,02,03,59,9.20
2012,10,02,04,00,9.20
2012,10,02,04,01,9.20
2012,10,02,04,02,9.20
2012,10,02,04,03,9.20
2012,10,02,04,04,9.20
2012,10,02,04,05,9.20
2012,10,02,04,06,9.20
2012,10,02,04,07,9.30
2012,10,02,04,08,9.30
2012,10,02,04,09,9.30
2012,10,02,04,10,9.30
2012,10,02,04,11,9.30
2012,10,02,04,12,9.30
2012,10,02,04,13,9.30
2012,10,02,04,14,9.30
2012,10,02,04,15,9.30
2012,10,02,04,16,9.30
2012,10,02,04,17,9.30
2012,10,02,04,18,9.30
2012,10,02,04,19,9.30
2012,10,02,04,20,9.30
2012,10,02,04,21,9.30
2012,10,02,04,22,9.30
2012,10,02,04,23,9.30
2012,10,02,04,24,9.30
2012,10,02,04,25,9.30
2012,10,02,04,26,9.30
2012,10,02,04,27,9.30
2012,10,02,04,28,9.30
2012,10,02,04,29,9.30
2012,10,02,04,30,9.30
2012,10,02,04,31,9.30
2012,10,02,04,32,9.30
2012,10,02,04,33,9.40
2012,10,02,04,34,9.40
2012,10,02,04,35,9.40
2012,10,02,04,36,9.40
2012,10,02,04,37,9.40
2012,10,02,04,38,9.40
2012,10,02,04,39,9.40
2012,10,02,04,40,9.40
2012,10,02,04,41,9.40
2012,10,02,04,42,9.40
2012,10,02,04,43,9.40
2012,10,02,04,44,9.40
2012,10,02,04,45,9.40
2012,10,02,04,46,9.40
2012,10,02,04,47,9.40
2012,10,02,04,48,9.40
2012,10,02,04,49,9.40
2012,10,02,04,50,9.40
2012,10,02,04,51,9.40
2012,10,02,04,52,9.50
2012,10,02,04,53,9.50
2012,10,02,04,54,9.50
2012,10,02,04,55,9.50
2012,10,02,04,56,9.50
2012,10,02,04,57,9.50
2012,10,02,04,58,9.60
2012,10,02,04,59,9.60
2012,10,02,05,00,9.60
2012,10,02,05,01,9.60
2012,10,02,05,02,9.60
2012,10,02,05,03,9.70
2012,10,02,05,04,9.70
2012,10,02,05,05,9.70
2012,10,02,05,06,9.70
2012,10,02,05,07,9.70
2012,10,02,05,08,9.70
2012,10,02,05,09,9.70
2012,10,02,05,10,9.70
2012,10,02,05,11,9.80
2012,10,02,05,12,9.80
2012,10,02,05,13,9.80
2012,10,02,05,14,9.80
2012,10,02,05,15,9.80
2012,10,02,05,16,9.80
2012,10,02,05,17,9.80
2012,10,02,05,18,9.90
2012,10,02,05,19,9.90
2012,10,02,05,20,9.90
2012,10,02,05,21,9.90
2012,10,02,05,22,9.90
2012,10,02,05,23,9.90
2012,10,02,05,24,9.90
2012,10,02,05,25,10.00
2012,10,02,05,26,10.00
2012,10,02,05,27,10.00
2012,10,02,05,28,10.00
2012,10,02,05,29,10.00
2012,10,02,05,30,10.10
2012,10,02,05,31,10.10
2012,10,02,05,32,10.10
2012,10,02,05,33,10.10
2012,10,02,05,34,10.10
2012,10,02,05,35,10.10
2012,10,02,05,36,10.10
2012,10,02,05,37,10.20
2012,10,02,05,38,10.20
2012,10,02,05,39,10.20
2012,10,02,05,40,10.20
2012,10,02,05,41,10.20
2012,10,02,05,42,10.20
2012,10,02,05,43,10.20
2012,10,02,05,44,10.20
2012,10,02,05,45,10.20
2012,10,02,05,46,10.20
2012,10,02,05,47,10.20
2012,10,02,05,48,10.20
2012,10,02,05,49,10.20
2012,10,02,05,50,10.20
2012,10,02,05,51,10.20
2012,10,02,05,52,10.20
2012,10,02,05,53,10.20
2012,10,02,05,54,10.20
2012,10,02,05,55,10.10
2012,10,02,05,56,10.10
2012,10,02,05,57,10.10
2012,10,02,05,58,10.10
2012,10,02,05,59,10.10
2012,10,02,06,00,10.10
2012,10,02,06,01,10.10
2012,10,02,06,02,10.10
2012,10,02,06,03,10.10
2012,10,02,06,04,10.10
2012,10,02,06,05,10.10
2012,10,02,06,06,10.10
2012,10,02,06,07,10.10
2012,10,02,06,08,10.10
2012,10,02,06,09,10.10
2012,10,02,06,10,10.10
2012,10,02,06,11,10.10
2012,10,02,06,12,10.10
2012,10,02,06,13,10.10
2012,10,02,06,14,10.10
2012,10,02,06,15,10.10
2012,10,02,06,16,10.00
2012,10,02,06,17,10.10
2012,10,02,06,18,10.00
2012,10,02,06,19,10.00
2012,10,02,06,20,10.00
2012,10,02,06,21,10.00
2012,10,02,06,22,10.00
2012,10,02,06,23,10.00
2012,10,02,06,24,10.00
2012,10,02,06,25,10.00
2012,10,02,06,26,10.00
2012,10,02,06,27,10.00
2012,10,02,06,28,10.00
2012,10,02,06,29,10.00
2012,10,02,06,30,10.00
2012,10,02,06,31,10.00
2012,10,02,06,32,10.00
2012,10,02,06,33,10.00
2012,10,02,06,34,10.00
2012,10,02,06,35,10.00
2012,10,02,06,36,10.00
2012,10,02,06,37,9.90
2012,10,02,06,38,9.90
2012,10,02,06,39,9.90
2012,10,02,06,40,9.90
2012,10,02,06,41,9.90
2012,10,02,06,42,9.90
2012,10,02,06,43,9.90
2012,10,02,06,44,9.90
2012,10,02,06,45,9.90
2012,10,02,06,46,9.90
2012,10,02,06,47,9.90
2012,10,02,06,48,9.90
2012,10,02,06,49,9.90
2012,10,02,06,50,9.90
2012,10,02,06,51,9.90
2012,10,02,06,52,9.90
2012,10,02,06,53,9.90
2012,10,02,06,54,9.90
2012,10,02,06,55,9.90
2012,10,02,06,56,9.90
2012,10,02,06,57,9.90
2012,10,02,06,58,9.90
2012,10,02,06,59,9.90
2012,10,02,07,00,9.90
2012,10,02,07,01,9.90
2012,10,02,07,02,9.90
2012,10,02,07,03,9.90
2012,10,02,07,04,9.90
2012,10,02,07,05,9.90
2012,10,02,07,06,9.90
2012,10,02,07,07,9.90
2012,10,02,07,08,9.90
2012,10,02,07,09,9.80
2012,10,02,07,10,9.80
2012,10,02,07,11,9.80
2012,10,02,07,12,9.80
2012,10,02,07,13,9.80
2012,10,02,07,14,9.90
2012,10,02,07,15,9.80
2012,10,02,07,16,9.80
2012,10,02,07,17,9.80
2012,10,02,07,18,9.80
2012,10,02,07,19,9.80
2012,10,02,07,20,9.80
2012,10,02,07,21,9.80
2012,10,02,07,22,9.80
2012,10,02,07,23,9.80
2012,10,02,07,24,9.80
2012,10,02,07,25,9.80
2012,10,02,07,26,9.80
2012,10,02,07,27,9.80
2012,10,02,07,28,9.80
2012,10,02,07,29,9.80
2012,10,02,07,30,9.80
2012,10,02,07,31,9.80
2012,10,02,07,32,9.80
2012,10,02,07,33,9.80
2012,10,02,07,34,9.80
2012,10,02,07,35,9.80
2012,10,02,07,36,9.70
2012,10,02,07,37,9.70
2012,10,02,07,38,9.70
2012,10,02,07,39,9.70
2012,10,02,07,40,9.70
2012,10,02,07,41,9.70
2012,10,02,07,42,9.70
2012,10,02,07,43,9.70
2012,10,02,07,44,9.70
2012,10,02,07,45,9.70
2012,10,02,07,46,9.70
2012,10,02,07,47,9.70
2012,10,02,07,48,9.70
2012,10,02,07,49,9.70
2012,10,02,07,50,9.70
2012,10,02,07,51,9.70
2012,10,02,07,52,9.70
2012,10,02,07,53,9.70
2012,10,02,07,54,9.70
2012,10,02,07,55,9.70
2012,10,02,07,56,9.70
2012,10,02,07,57,9.70
2012,10,02,07,58,9.70
2012,10,02,07,59,9.70
2012,10,02,08,00,9.70
2012,10,02,08,01,9.70
2012,10,02,08,02,9.70
2012,10,02,08,03,9.70
2012,10,02,08,04,9.70
2012,10,02,08,05,9.70
2012,10,02,08,06,9.70
2012,10,02,08,07,9.70
2012,10,02,08,08,9.70
2012,10,02,08,09,9.70
2012,10,02,08,10,9.70
2012,10,02,08,11,9.70
2012,10,02,08,12,9.70
2012,10,02,08,13,9.70
2012,10,02,08,14,9.60
2012,10,02,08,15,9.60
2012,10,02,08,16,9.60
2012,10,02,08,17,9.60
2012,10,02,08,18,9.60
2012,10,02,08,19,9.60
2012,10,02,08,20,9.60
2012,10,02,08,21,9.60
2012,10,02,08,22,9.60
2012,10,02,08,23,9.60
2012,10,02,08,24,9.60
2012,10,02,08,25,9.60
2012,10,02,08,26,9.60
2012,10,02,08,27,9.50
2012,10,02,08,28,9.50
2012,10,02,08,29,9.50
2012,10,02,08,30,9.50
2012,10,02,08,31,9.40
2012,10,02,08,32,9.40
2012,10,02,08,33,9.40
2012,10,02,08,34,9.40
2012,10,02,08,35,9.40
2012,10,02,08,36,9.40
2012,10,02,08,37,9.40
2012,10,02,08,38,9.40
2012,10,02,08,39,9.40
2012,10,02,08,40,9.40
2012,10,02,08,41,9.40
2012,10,02,08,42,9.40
2012,10,02,08,43,9.40
2012,10,02,08,44,9.40
2012,10,02,08,45,9.40
2012,10,02,08,46,9.40
2012,10,02,08,47,9.40
2012,10,02,08,48,9.40
2012,10,02,08,49,9.40
2012,10,02,08,50,9.40
2012,10,02,08,51,9.40
2012,10,02,08,52,9.40
2012,10,02,08,53,9.50
2012,10,02,08,54,9.50
2012,10,02,08,55,9.50
2012,10,02,08,56,9.60
2012,10,02,08,57,9.60
2012,10,02,08,58,9.60
2012,10,02,08,59,9.60
2012,10,02,09,00,9.60
2012,10,02,09,01,9.60
2012,10,02,09,02,9.60
2012,10,02,09,03,9.60
2012,10,02,09,04,9.60
2012,10,02,09,05,9.60
2012,10,02,09,06,9.70
2012,10,02,09,07,9.70
2012,10,02,09,08,9.70
2012,10,02,09,09,9.70
2012,10,02,09,10,9.70
2012,10,02,09,11,9.70
2012,10,02,09,12,9.70
2012,10,02,09,13,9.70
2012,10,02,09,14,9.70
2012,10,02,09,15,9.70
2012,10,02,09,16,9.70
2012,10,02,09,17,9.70
2012,10,02,09,18,9.70
2012,10,02,09,19,9.80
2012,10,02,09,20,9.80
2012,10,02,09,21,9.80
2012,10,02,09,22,9.80
2012,10,02,09,23,9.80
2012,10,02,09,24,9.80
2012,10,02,09,25,9.80
2012,10,02,09,26,9.70
2012,10,02,09,27,9.70
2012,10,02,09,28,9.70
2012,10,02,09,29,9.80
2012,10,02,09,30,9.80
2012,10,02,09,31,9.80
2012,10,02,09,32,9.80
2012,10,02,09,33,9.80
2012,10,02,09,34,9.80
2012,10,02,09,35,9.80
2012,10,02,09,36,9.80
2012,10,02,09,37,9.90
2012,10,02,09,38,9.90
2012,10,02,09,39,9.90
2012,10,02,09,40,9.90
2012,10,02,09,41,9.90
2012,10,02,09,42,9.90
2012,10,02,09,43,9.90
2012,10,02,09,44,9.90
2012,10,02,09,45,9.90
2012,10,02,09,46,9.90
2012,10,02,09,47,9.90
2012,10,02,09,48,9.90
2012,10,02,09,49,9.90
2012,10,02,09,50,9.90
2012,10,02,09,51,9.90
2012,10,02,09,52,10.00
2012,10,02,09,53,10.00
2012,10,02,09,54,10.00
2012,10,02,09,55,10.10
2012,10,02,09,56,10.10
2012,10,02,09,57,10.10
2012,10,02,09,58,10.10
2012,10,02,09,59,10.10
2012,10,02,10,00,10.10
2012,10,02,10,01,10.20
2012,10,02,10,02,10.20
2012,10,02,10,03,10.20
2012,10,02,10,04,10.20
2012,10,02,10,05,10.20
2012,10,02,10,06,10.20
2012,10,02,10,07,10.20
2012,10,02,10,08,10.20
2012,10,02,10,09,10.30
2012,10,02,10,10,10.30
2012,10,02,10,11,10.30
2012,10,02,10,12,10.40
2012,10,02,10,13,10.40
2012,10,02,10,14,10.40
2012,10,02,10,15,10.40
2012,10,02,10,16,10.40
2012,10,02,10,17,10.40
2012,10,02,10,18,10.40
2012,10,02,10,19,10.40
2012,10,02,10,20,10.40
2012,10,02,10,21,10.40
2012,10,02,10,22,10.40
2012,10,02,10,23,10.40
2012,10,02,10,24,10.40
2012,10,02,10,25,10.40
2012,10,02,10,26,10.40
2012,10,02,10,27,10.50
2012,10,02,10,28,10.50
2012,10,02,10,29,10.50
2012,10,02,10,30,10.50
2012,10,02,10,31,10.60
2012,10,02,10,32,10.60
2012,10,02,10,33,10.60
2012,10,02,10,34,10.60
2012,10,02,10,35,10.60
2012,10,02,10,36,10.60
2012,10,02,10,37,10.60
2012,10,02,10,38,10.60
2012,10,02,10,39,10.70
2012,10,02,10,40,10.60
2012,10,02,10,41,10.60
2012,10,02,10,42,10.60
2012,10,02,10,43,10.50
2012,10,02,10,44,10.50
2012,10,02,10,45,10.50
2012,10,02,10,46,10.40
2012,10,02,10,47,10.40
2012,10,02,10,48,10.40
2012,10,02,10,49,10.40
2012,10,02,10,50,10.40
2012,10,02,10,51,10.50
2012,10,02,10,52,10.50
2012,10,02,10,53,10.60
2012,10,02,10,54,10.60
2012,10,02,10,55,10.60
2012,10,02,10,56,10.60
2012,10,02,10,57,10.60
2012,10,02,10,58,10.60
2012,10,02,10,59,10.60
2012,10,02,11,00,10.60
2012,10,02,11,01,10.70
2012,10,02,11,02,10.70
2012,10,02,11,03,10.70
2012,10,02,11,04,10.70
2012,10,02,11,05,10.80
2012,10,02,11,06,10.80
2012,10,02,11,07,10.80
2012,10,02,11,08,10.90
2012,10,02,11,09,10.90
2012,10,02,11,10,10.90
2012,10,02,11,11,10.90
2012,10,02,11,12,10.90
2012,10,02,11,13,10.90
2012,10,02,11,14,10.90
2012,10,02,11,15,10.90
2012,10,02,11,16,10.90
2012,10,02,11,17,10.90
2012,10,02,11,18,11.00
2012,10,02,11,19,11.00
2012,10,02,11,20,11.00
2012,10,02,11,21,11.00
2012,10,02,11,22,11.10
2012,10,02,11,23,11.10
2012,10,02,11,24,11.10
2012,10,02,11,25,11.10
2012,10,02,11,26,11.20
2012,10,02,11,27,11.20
2012,10,02,11,28,11.20
2012,10,02,11,29,11.20
2012,10,02,11,30,11.20
2012,10,02,11,31,11.20
2012,10,02,11,32,11.30
2012,10,02,11,33,11.30
2012,10,02,11,34,11.30
2012,10,02,11,35,11.30
2012,10,02,11,36,11.40
2012,10,02,11,37,11.40
2012,10,02,11,38,11.40
2012,10,02,11,39,11.40
2012,10,02,11,40,11.30
2012,10,02,11,41,11.30
2012,10,02,11,42,11.30
2012,10,02,11,43,11.30
2012,10,02,11,44,11.30
2012,10,02,11,45,11.30
2012,10,02,11,46,11.30
2012,10,02,11,47,11.30
2012,10,02,11,48,11.20
2012,10,02,11,49,11.20
2012,10,02,11,50,11.20
2012,10,02,11,51,11.10
2012,10,02,11,52,11.20
2012,10,02,11,53,11.20
2012,10,02,11,54,11.20
2012,10,02,11,55,11.20
2012,10,02,11,56,11.30
2012,10,02,11,57,11.30
2012,10,02,11,58,11.40
2012,10,02,11,59,11.40
2012,10,02,12,00,11.40
2012,10,02,12,01,11.40
2012,10,02,12,02,11.50
2012,10,02,12,03,11.50
2012,10,02,12,04,11.50
2012,10,02,12,05,11.50
2012,10,02,12,06,11.50
2012,10,02,12,07,11.50
2012,10,02,12,08,11.50
2012,10,02,12,09,11.50
2012,10,02,12,10,11.60
2012,10,02,12,11,11.60
2012,10,02,12,12,11.70
2012,10,02,12,13,11.70
2012,10,02,12,14,11.70
2012,10,02,12,15,11.80
2012,10,02,12,16,11.80
2012,10,02,12,17,11.80
2012,10,02,12,18,11.80
2012,10,02,12,19,11.80
2012,10,02,12,20,11.80
2012,10,02,12,21,11.80
2012,10,02,12,22,11.90
2012,10,02,12,23,11.90
2012,10,02,12,24,12.00
2012,10,02,12,25,12.00
2012,10,02,12,26,12.10
2012,10,02,12,27,12.20
2012,10,02,12,28,12.20
2012,10,02,12,29,12.30
2012,10,02,12,30,12.40
2012,10,02,12,31,12.60
2012,10,02,12,32,12.70
2012,10,02,12,33,12.80
2012,10,02,12,34,12.80
2012,10,02,12,35,12.90
2012,10,02,12,36,13.10
2012,10,02,12,37,13.20
2012,10,02,12,38,13.30
2012,10,02,12,39,13.30
2012,10,02,12,40,13.30
2012,10,02,12,41,13.40
2012,10,02,12,42,13.50
2012,10,02,12,43,13.50
2012,10,02,12,44,13.50
2012,10,02,12,45,13.40
2012,10,02,12,46,13.50
2012,10,02,12,47,13.50
2012,10,02,12,48,13.60
2012,10,02,12,49,13.60
2012,10,02,12,50,13.60
2012,10,02,12,51,13.60
2012,10,02,12,52,13.60
2012,10,02,12,53,13.60
2012,10,02,12,54,13.60
2012,10,02,12,55,13.70
2012,10,02,12,56,13.70
2012,10,02,12,57,13.60
2012,10,02,12,58,13.60
2012,10,02,12,59,13.50
2012,10,02,13,00,13.50
2012,10,02,13,01,13.40
2012,10,02,13,02,13.30
2012,10,02,13,03,13.30
2012,10,02,13,04,13.20
2012,10,02,13,05,13.20
2012,10,02,13,06,13.10
2012,10,02,13,07,13.20
2012,10,02,13,08,13.10
2012,10,02,13,09,13.00
2012,10,02,13,10,13.00
2012,10,02,13,11,13.00
2012,10,02,13,12,13.00
2012,10,02,13,13,13.00
2012,10,02,13,14,13.10
2012,10,02,13,15,13.10
2012,10,02,13,16,13.20
2012,10,02,13,17,13.20
2012,10,02,13,18,13.20
2012,10,02,13,19,13.30
2012,10,02,13,20,13.40
2012,10,02,13,21,13.50
2012,10,02,13,22,13.60
2012,10,02,13,23,13.70
2012,10,02,13,24,13.70
2012,10,02,13,25,13.80
2012,10,02,13,26,13.80
2012,10,02,13,27,13.90
2012,10,02,13,28,13.90
2012,10,02,13,29,13.90
2012,10,02,13,30,13.90
2012,10,02,13,31,13.80
2012,10,02,13,32,13.70
2012,10,02,13,33,13.60
2012,10,02,13,34,13.50
2012,10,02,13,35,13.40
2012,10,02,13,36,13.40
2012,10,02,13,37,13.40
2012,10,02,13,38,13.30
2012,10,02,13,39,13.30
2012,10,02,13,40,13.20
2012,10,02,13,41,13.20
2012,10,02,13,42,13.20
2012,10,02,13,43,13.20
2012,10,02,13,44,13.20
2012,10,02,13,45,13.10
2012,10,02,13,46,13.10
2012,10,02,13,47,13.10
2012,10,02,13,48,13.20
2012,10,02,13,49,13.20
2012,10,02,13,50,13.20
2012,10,02,13,51,13.30
2012,10,02,13,52,13.40
2012,10,02,13,53,13.40
2012,10,02,13,54,13.40
2012,10,02,13,55,13.40
2012,10,02,13,56,13.30
2012,10,02,13,57,13.40
2012,10,02,13,58,13.40
2012,10,02,13,59,13.40
2012,10,02,14,00,13.30
2012,10,02,14,01,13.30
2012,10,02,14,02,13.40
2012,10,02,14,03,13.40
2012,10,02,14,04,13.30
2012,10,02,14,05,13.30
2012,10,02,14,06,13.30
2012,10,02,14,07,13.30
2012,10,02,14,08,13.30
2012,10,02,14,09,13.30
2012,10,02,14,10,13.30
2012,10,02,14,11,13.30
2012,10,02,14,12,13.30
2012,10,02,14,13,13.30
2012,10,02,14,14,13.30
2012,10,02,14,15,13.30
2012,10,02,14,16,13.30
2012,10,02,14,17,13.20
2012,10,02,14,18,13.20
2012,10,02,14,19,13.20
2012,10,02,14,20,13.20
2012,10,02,14,21,13.20
2012,10,02,14,22,13.10
2012,10,02,14,23,13.10
2012,10,02,14,24,13.20
2012,10,02,14,25,13.30
2012,10,02,14,26,13.30
2012,10,02,14,27,13.30
2012,10,02,14,28,13.40
2012,10,02,14,29,13.40
2012,10,02,14,30,13.50
2012,10,02,14,31,13.50
2012,10,02,14,32,13.60
2012,10,02,14,33,13.70
2012,10,02,14,34,13.70
2012,10,02,14,35,13.70
2012,10,02,14,36,13.70
2012,10,02,14,37,13.80
2012,10,02,14,38,13.80
2012,10,02,14,39,13.80
2012,10,02,14,40,13.80
2012,10,02,14,41,13.90
2012,10,02,14,42,13.90
2012,10,02,14,43,14.00
2012,10,02,14,44,14.00
2012,10,02,14,45,14.00
2012,10,02,14,46,13.90
2012,10,02,14,47,14.00
2012,10,02,14,48,14.00
2012,10,02,14,49,14.10
2012,10,02,14,50,14.10
2012,10,02,14,51,14.10
2012,10,02,14,52,14.10
2012,10,02,14,53,14.10
2012,10,02,14,54,14.20
2012,10,02,14,55,14.20
2012,10,02,14,56,14.30
2012,10,02,14,57,14.30
2012,10,02,14,58,14.30
2012,10,02,14,59,14.40
2012,10,02,15,00,14.40
2012,10,02,15,01,14.50
2012,10,02,15,02,14.50
2012,10,02,15,03,14.60
2012,10,02,15,04,14.60
2012,10,02,15,05,14.50
2012,10,02,15,06,14.50
2012,10,02,15,07,14.50
2012,10,02,15,08,14.40
2012,10,02,15,09,14.40
2012,10,02,15,10,14.30
2012,10,02,15,11,14.30
2012,10,02,15,12,14.40
2012,10,02,15,13,14.40
2012,10,02,15,14,14.40
2012,10,02,15,15,14.40
2012,10,02,15,16,14.40
2012,10,02,15,17,14.50
2012,10,02,15,18,14.60
2012,10,02,15,19,14.70
2012,10,02,15,20,14.70
2012,10,02,15,21,14.70
2012,10,02,15,22,14.70
2012,10,02,15,23,14.60
2012,10,02,15,24,14.60
2012,10,02,15,25,14.60
2012,10,02,15,26,14.60
2012,10,02,15,27,14.60
2012,10,02,15,28,14.70
2012,10,02,15,29,14.80
2012,10,02,15,30,14.80
2012,10,02,15,31,14.90
2012,10,02,15,32,15.00
2012,10,02,15,33,15.10
2012,10,02,15,34,15.10
2012,10,02,15,35,15.20
2012,10,02,15,36,15.20
2012,10,02,15,37,15.30
2012,10,02,15,38,15.30
2012,10,02,15,39,15.30
2012,10,02,15,40,15.30
2012,10,02,15,41,15.30
2012,10,02,15,42,15.30
2012,10,02,15,43,15.40
2012,10,02,15,44,15.40
2012,10,02,15,45,15.40
2012,10,02,15,46,15.30
2012,10,02,15,47,15.20
2012,10,02,15,48,15.20
2012,10,02,15,49,15.20
2012,10,02,15,50,15.10
2012,10,02,15,51,15.10
2012,10,02,15,52,15.10
2012,10,02,15,53,15.10
2012,10,02,15,54,15.20
2012,10,02,15,55,15.20
2012,10,02,15,56,15.30
2012,10,02,15,57,15.40
2012,10,02,15,58,15.40
2012,10,02,15,59,15.50
2012,10,02,16,00,15.50
2012,10,02,16,01,15.60
2012,10,02,16,02,15.60
2012,10,02,16,03,15.60
2012,10,02,16,04,15.60
2012,10,02,16,05,15.50
2012,10,02,16,06,15.40
2012,10,02,16,07,15.40
2012,10,02,16,08,15.30
2012,10,02,16,09,15.30
2012,10,02,16,10,15.30
2012,10,02,16,11,15.40
2012,10,02,16,12,15.40
2012,10,02,16,13,15.50
2012,10,02,16,14,15.50
2012,10,02,16,15,15.60
2012,10,02,16,16,15.70
2012,10,02,16,17,15.80
2012,10,02,16,18,15.80
2012,10,02,16,19,15.90
2012,10,02,16,20,16.00
2012,10,02,16,21,16.00
2012,10,02,16,22,15.90
2012,10,02,16,23,15.90
2012,10,02,16,24,15.80
2012,10,02,16,25,15.80
2012,10,02,16,26,15.70
2012,10,02,16,27,15.70
2012,10,02,16,28,15.70
2012,10,02,16,29,15.60
2012,10,02,16,30,15.60
2012,10,02,16,31,15.60
2012,10,02,16,32,15.60
2012,10,02,16,33,15.60
2012,10,02,16,34,15.60
2012,10,02,16,35,15.70
2012,10,02,16,36,15.70
2012,10,02,16,37,15.80
2012,10,02,16,38,15.90
2012,10,02,16,39,16.00
2012,10,02,16,40,16.00
2012,10,02,16,41,16.10
2012,10,02,16,42,16.20
2012,10,02,16,43,16.20
2012,10,02,16,44,16.20
2012,10,02,16,45,16.30
2012,10,02,16,46,16.30
2012,10,02,16,47,16.30
2012,10,02,16,48,16.40
2012,10,02,16,49,16.40
2012,10,02,16,50,16.40
2012,10,02,16,51,16.50
2012,10,02,16,52,16.50
2012,10,02,16,53,16.50
2012,10,02,16,54,16.50
2012,10,02,16,55,16.60
2012,10,02,16,56,16.60
2012,10,02,16,57,16.60
2012,10,02,16,58,16.60
2012,10,02,16,59,16.60
2012,10,02,17,00,16.60
2012,10,02,17,01,16.60
2012,10,02,17,02,16.60
2012,10,02,17,03,16.70
2012,10,02,17,04,16.70
2012,10,02,17,05,16.70
2012,10,02,17,06,16.80
2012,10,02,17,07,16.80
2012,10,02,17,08,16.80
2012,10,02,17,09,16.70
2012,10,02,17,10,16.60
2012,10,02,17,11,16.50
2012,10,02,17,12,16.40
2012,10,02,17,13,16.40
2012,10,02,17,14,16.30
2012,10,02,17,15,16.20
2012,10,02,17,16,16.10
2012,10,02,17,17,16.00
2012,10,02,17,18,15.90
2012,10,02,17,19,15.70
2012,10,02,17,20,15.60
2012,10,02,17,21,15.50
2012,10,02,17,22,15.40
2012,10,02,17,23,15.40
2012,10,02,17,24,15.30
2012,10,02,17,25,15.30
2012,10,02,17,26,15.30
2012,10,02,17,27,15.30
2012,10,02,17,28,15.20
2012,10,02,17,29,15.20
2012,10,02,17,30,15.20
2012,10,02,17,31,15.10
2012,10,02,17,32,15.00
2012,10,02,17,33,15.00
2012,10,02,17,34,14.90
2012,10,02,17,35,14.80
2012,10,02,17,36,14.70
2012,10,02,17,37,14.70
2012,10,02,17,38,14.50
2012,10,02,17,39,14.40
2012,10,02,17,40,14.20
2012,10,02,17,41,14.10
2012,10,02,17,42,14.00